When you browse on this site, cookies collect data to enhance your experience and personalize the content and advertising you see.
Visit our Privacy Policy to learn more. By continuing to use the site, you agree to this use of cookies and data.
  • In Romania
  • List of Countries
  • For 7 days
  • Water Temperature
  • Weather Map
  • Weather Widgets
  • user-avatar
    Login

    Hourly Weather Boa Vista

    Today, 15 September, Sunday

    Time Temperature Precipitation Wind Pressure Humidity
    00:00 +28°C° 0.1 mm 1 mps 752 mmHg 72%
    01:00 +28°C° 0.1 mm 1 mps 752 mmHg 74%
    02:00 +27°C° 0 mm 1 mps 751 mmHg 80%
    03:00 +27°C° 0.7 mm 1 mps 752 mmHg 83%
    04:00 +27°C° 0.7 mm 1 mps 752 mmHg 85%
    05:00 +26°C° 0.7 mm 1 mps 752 mmHg 88%
    06:00 +27°C° 0 mm 1 mps 753 mmHg 86%
    07:00 +28°C° 0 mm 1 mps 753 mmHg 84%
    08:00 +29°C° 0 mm 1 mps 753 mmHg 82%
    09:00 +31°C° 0 mm 2 mps 753 mmHg 72%
    10:00 +32°C° 0 mm 2 mps 753 mmHg 63%
    11:00 +35°C° 0 mm 2 mps 753 mmHg 54%
    12:00 +36°C° 0 mm 2 mps 752 mmHg 52%
    13:00 +37°C° 0 mm 2 mps 751 mmHg 49%
    14:00 +37°C° 0 mm 2 mps 750 mmHg 46%
    15:00 +36°C° 0.3 mm 2 mps 750 mmHg 54%
    16:00 +34°C° 0.3 mm 3 mps 750 mmHg 61%
    17:00 +31°C° 0.3 mm 3 mps 750 mmHg 68%
    18:00 +30°C° 0.7 mm 3 mps 750 mmHg 73%
    19:00 +29°C° 0.7 mm 2 mps 751 mmHg 79%
    20:00 +27°C° 0.7 mm 1 mps 751 mmHg 84%
    21:00 +27°C° 0.1 mm 1 mps 751 mmHg 84%
    22:00 +27°C° 0.1 mm 1 mps 752 mmHg 84%
    23:00 +27°C° 0.1 mm 1 mps 752 mmHg 85%

    Tomorrow, 16 September, Monday

    Time Temperature Precipitation Wind Pressure Humidity
    00:00 +27°C° 0.1 mm 1 mps 751 mmHg 87%
    01:00 +26°C° 0.1 mm 1 mps 751 mmHg 88%
    02:00 +26°C° 0.1 mm 1 mps 750 mmHg 90%
    03:00 +26°C° 0 mm 1 mps 751 mmHg 90%
    04:00 +26°C° 0 mm 1 mps 751 mmHg 90%
    05:00 +26°C° 0 mm 1 mps 751 mmHg 90%
    06:00 +27°C° 0 mm 1 mps 752 mmHg 86%
    07:00 +28°C° 0 mm 1 mps 752 mmHg 82%
    08:00 +29°C° 0 mm 1 mps 753 mmHg 78%
    09:00 +31°C° 0.2 mm 1 mps 753 mmHg 70%
    10:00 +31°C° 0.2 mm 0 mps 753 mmHg 63%
    11:00 +33°C° 0.2 mm 0 mps 753 mmHg 55%
    12:00 +35°C° 0.7 mm 1 mps 752 mmHg 54%
    13:00 +35°C° 0.7 mm 1 mps 751 mmHg 53%
    14:00 +36°C° 0.7 mm 2 mps 751 mmHg 53%
    15:00 +35°C° 0.2 mm 2 mps 750 mmHg 57%
    16:00 +35°C° 0.2 mm 2 mps 750 mmHg 61%
    17:00 +33°C° 0.2 mm 1 mps 750 mmHg 65%
    18:00 +31°C° 0.4 mm 1 mps 750 mmHg 70%
    19:00 +30°C° 0.4 mm 1 mps 750 mmHg 76%
    20:00 +28°C° 0.4 mm 1 mps 751 mmHg 81%
    21:00 +28°C° 0 mm 1 mps 751 mmHg 81%
    22:00 +28°C° 0 mm 1 mps 751 mmHg 82%
    23:00 +28°C° 0 mm 1 mps 752 mmHg 82%

    Day after tomorrow, 17 September, Tuesday

    Time Temperature Precipitation Wind Pressure Humidity
    00:00 +28°C° 0 mm 1 mps 751 mmHg 83%
    01:00 +28°C° 0 mm 1 mps 751 mmHg 83%
    02:00 +27°C° 0 mm 1 mps 750 mmHg 83%
    03:00 +27°C° 0 mm 1 mps 751 mmHg 84%
    04:00 +27°C° 0 mm 1 mps 751 mmHg 85%
    05:00 +27°C° 0 mm 1 mps 751 mmHg 86%
    06:00 +28°C° 0.1 mm 1 mps 752 mmHg 82%
    07:00 +29°C° 0.1 mm 1 mps 752 mmHg 78%
    08:00 +30°C° 0.1 mm 1 mps 753 mmHg 74%
    09:00 +31°C° 0.1 mm 2 mps 753 mmHg 68%
    10:00 +34°C° 0.1 mm 2 mps 753 mmHg 62%
    11:00 +35°C° 0.1 mm 2 mps 753 mmHg 55%
    12:00 +36°C° 0.5 mm 2 mps 752 mmHg 54%
    13:00 +36°C° 0.5 mm 2 mps 751 mmHg 52%
    14:00 +37°C° 0.5 mm 2 mps 750 mmHg 50%
    15:00 +36°C° 0 mm 2 mps 750 mmHg 52%
    16:00 +35°C° 0 mm 1 mps 750 mmHg 54%
    17:00 +35°C° 0 mm 1 mps 749 mmHg 56%
    18:00 +33°C° 0 mm 1 mps 749 mmHg 60%
    19:00 +30°C° 0 mm 0 mps 749 mmHg 64%
    20:00 +28°C° 0 mm 0 mps 749 mmHg 68%
    21:00 +28°C° 0.3 mm 0 mps 750 mmHg 71%
    22:00 +29°C° 0.3 mm 1 mps 750 mmHg 74%
    23:00 +29°C° 0.3 mm 1 mps 751 mmHg 76%

    18 September, Wednesday

    Time Temperature Precipitation Wind Pressure Humidity
    00:00 +28°C° 0.7 mm 1 mps 751 mmHg 80%
    01:00 +28°C° 0.7 mm 1 mps 750 mmHg 83%
    02:00 +25°C° 0.7 mm 0 mps 750 mmHg 86%
    03:00 +25°C° 0.1 mm 0 mps 750 mmHg 87%
    04:00 +25°C° 0.1 mm 0 mps 750 mmHg 88%
    05:00 +25°C° 0.1 mm 0 mps 750 mmHg 89%
    06:00 +28°C° 0.1 mm 1 mps 751 mmHg 85%
    07:00 +29°C° 0.1 mm 1 mps 751 mmHg 81%
    08:00 +30°C° 0.1 mm 1 mps 752 mmHg 77%
    09:00 +31°C° 1.5 mm 2 mps 752 mmHg 73%
    10:00 +33°C° 1.5 mm 3 mps 751 mmHg 68%
    11:00 +34°C° 1.5 mm 4 mps 751 mmHg 64%
    12:00 +35°C° 0.5 mm 3 mps 751 mmHg 59%
    13:00 +36°C° 0.5 mm 3 mps 750 mmHg 55%
    14:00 +37°C° 0.5 mm 2 mps 749 mmHg 51%
    15:00 +36°C° 0.2 mm 2 mps 749 mmHg 55%
    16:00 +35°C° 0.2 mm 2 mps 749 mmHg 59%
    17:00 +34°C° 0.2 mm 1 mps 749 mmHg 63%
    18:00 +32°C° 0.2 mm 1 mps 749 mmHg 68%
    19:00 +31°C° 0.2 mm 1 mps 749 mmHg 73%
    20:00 +27°C° 0.2 mm 0 mps 749 mmHg 77%
    21:00 +27°C° 0.4 mm 0 mps 750 mmHg 80%
    22:00 +28°C° 0.4 mm 1 mps 750 mmHg 82%
    23:00 +28°C° 0.4 mm 1 mps 751 mmHg 85%

    19 September, Thursday

    Time Temperature Precipitation Wind Pressure Humidity
    00:00 +27°C° 0.8 mm 1 mps 750 mmHg 87%
    01:00 +27°C° 0.8 mm 2 mps 750 mmHg 90%
    02:00 +26°C° 0.8 mm 2 mps 749 mmHg 93%
    03:00 +26°C° 0 mm 2 mps 750 mmHg 93%
    04:00 +26°C° 0 mm 1 mps 750 mmHg 93%
    05:00 +26°C° 0 mm 1 mps 750 mmHg 93%
    06:00 +27°C° 0 mm 1 mps 751 mmHg 89%
    07:00 +28°C° 0 mm 1 mps 751 mmHg 85%
    08:00 +28°C° 0 mm 1 mps 752 mmHg 81%
    09:00 +30°C° 0.7 mm 1 mps 752 mmHg 75%
    10:00 +31°C° 0.7 mm 1 mps 752 mmHg 69%
    11:00 +34°C° 0.7 mm 2 mps 752 mmHg 63%
    12:00 +35°C° 0 mm 2 mps 751 mmHg 58%
    13:00 +36°C° 0 mm 2 mps 750 mmHg 54%
    14:00 +37°C° 0 mm 3 mps 750 mmHg 49%
    15:00 +36°C° 0 mm 2 mps 749 mmHg 52%
    16:00 +36°C° 0 mm 2 mps 749 mmHg 55%
    17:00 +35°C° 0 mm 2 mps 749 mmHg 59%
    18:00 +34°C° 0 mm 2 mps 749 mmHg 62%
    19:00 +31°C° 0 mm 2 mps 749 mmHg 65%
    20:00 +30°C° 0 mm 2 mps 750 mmHg 69%
    21:00 +30°C° 0 mm 1 mps 750 mmHg 70%
    22:00 +29°C° 0 mm 1 mps 750 mmHg 72%
    23:00 +29°C° 0 mm 1 mps 751 mmHg 73%

    20 September, Friday

    Time Temperature Precipitation Wind Pressure Humidity
    00:00 +29°C° 0 mm 1 mps 750 mmHg 75%
    01:00 +28°C° 0 mm 1 mps 750 mmHg 77%
    02:00 +28°C° 0 mm 1 mps 749 mmHg 79%
    03:00 +28°C° 0.1 mm 1 mps 750 mmHg 81%
    04:00 +27°C° 0.1 mm 1 mps 750 mmHg 83%
    05:00 +27°C° 0.1 mm 1 mps 750 mmHg 85%
    06:00 +28°C° 0 mm 2 mps 751 mmHg 81%
    07:00 +29°C° 0 mm 3 mps 752 mmHg 77%
    08:00 +30°C° 0 mm 4 mps 752 mmHg 73%
    09:00 +33°C° 0 mm 5 mps 752 mmHg 67%
    10:00 +34°C° 0 mm 5 mps 752 mmHg 61%
    11:00 +36°C° 0 mm 5 mps 752 mmHg 54%
    12:00 +37°C° 0 mm 5 mps 751 mmHg 51%
    13:00 +37°C° 0 mm 4 mps 751 mmHg 48%
    14:00 +38°C° 0 mm 3 mps 750 mmHg 45%
    15:00 +37°C° 0 mm 3 mps 750 mmHg 48%
    16:00 +37°C° 0 mm 2 mps 750 mmHg 51%
    17:00 +36°C° 0 mm 2 mps 749 mmHg 53%
    18:00 +35°C° 0 mm 2 mps 750 mmHg 56%
    19:00 +32°C° 0 mm 1 mps 750 mmHg 59%
    20:00 +31°C° 0 mm 1 mps 750 mmHg 61%
    21:00 +30°C° 0 mm 1 mps 750 mmHg 62%
    22:00 +30°C° 0 mm 1 mps 751 mmHg 63%
    23:00 +30°C° 0 mm 1 mps 751 mmHg 65%
    Show more